| time (UTC) | temp F | wind direction | speed MPH | gust MPH | rain 1hr in | rain 24hr in | rain mn in | humidity % | barometer mb |
| 20260904105402 | 51 | 279 | 0.0 | 0.0 | 0.00 | 0.01 | 0.00 | 94 | 1008.7 |
| 20260904104403 | 51 | 279 | 0.0 | 0.0 | 0.00 | 0.01 | 0.00 | 94 | 1008.7 |
| 20260904103415 | 51 | 279 | 0.0 | 0.0 | 0.00 | 0.01 | 0.00 | 94 | 1008.7 |
| 20260904102422 | 50 | 281 | 0.0 | 0.0 | 0.00 | 0.01 | 0.00 | 93 | 1008.6 |
| 20260904100244 | 52 | 83 | 0.0 | 0.0 | 0.00 | 0.01 | 0.00 | 93 | 1008.6 |
| 20260904094150 | 51 | 131 | 0.0 | 0.0 | 0.00 | 0.01 | 0.00 | 93 | 1008.4 |
| 20260904093128 | 51 | 131 | 0.0 | 0.0 | 0.00 | 0.01 | 0.00 | 92 | 1008.6 |
| 20260904092132 | 51 | 131 | 0.0 | 0.0 | 0.00 | 0.01 | 0.00 | 93 | 1008.6 |
| 20260904085949 | 51 | 131 | 0.0 | 0.0 | 0.00 | 0.01 | 0.00 | 92 | 1008.6 |
| 20260904084941 | 51 | 131 | 0.0 | 0.0 | 0.00 | 0.01 | 0.00 | 93 | 1008.6 |
| 20260904084006 | 50 | 132 | 0.0 | 0.0 | 0.00 | 0.01 | 0.00 | 92 | 1008.6 |
| 20260904082943 | 50 | 132 | 0.0 | 0.0 | 0.00 | 0.01 | 0.00 | 92 | 1008.5 |
| 20260904081950 | 50 | 132 | 0.0 | 0.0 | 0.00 | 0.01 | 0.00 | 92 | 1008.6 |
| 20260904080945 | 51 | 132 | 0.0 | 0.0 | 0.00 | 0.01 | 0.00 | 90 | 1008.8 |
| 20260904080004 | 52 | 132 | 0.0 | 0.0 | 0.00 | 0.01 | 0.00 | 90 | 1008.7 |
| 20260904074934 | 52 | 136 | 0.0 | 0.0 | 0.00 | 0.01 | 0.00 | 89 | 1008.7 |
| 20260904073931 | 52 | 121 | 0.0 | 2.0 | 0.00 | 0.01 | 0.00 | 89 | 1008.7 |
| 20260904072941 | 52 | 121 | 0.0 | 2.0 | 0.00 | 0.01 | 0.00 | 88 | 1008.7 |
| 20260904071924 | 53 | 165 | 0.0 | 0.0 | 0.00 | 0.01 | 0.00 | 88 | 1008.6 |
| 20260904070855 | 53 | 166 | 0.0 | 0.0 | 0.00 | 0.01 | 0.00 | 88 | 1008.5 |
| 20260904065824 | 53 | 166 | 0.0 | 0.0 | 0.00 | 0.01 | 0.01 | 89 | 1008.4 |
| 20260904064845 | 52 | 205 | 0.0 | 0.0 | 0.00 | 0.01 | 0.01 | 89 | 1008.4 |
| 20260904063835 | 52 | 70 | 0.0 | 0.0 | 0.00 | 0.01 | 0.01 | 87 | 1008.4 |
| 20260904062807 | 54 | 70 | 0.0 | 0.0 | 0.00 | 0.01 | 0.01 | 86 | 1008.4 |
| 20260904061733 | 54 | 70 | 0.0 | 1.0 | 0.00 | 0.01 | 0.01 | 85 | 1008.3 |
| 20260904060746 | 54 | 70 | 0.0 | 1.0 | 0.00 | 0.01 | 0.01 | 85 | 1008.2 |
| 20260904055807 | 54 | 115 | 0.0 | 0.0 | 0.00 | 0.01 | 0.01 | 84 | 1008.3 |
| 20260904054819 | 54 | 115 | 0.0 | 0.0 | 0.00 | 0.01 | 0.01 | 84 | 1008.3 |
| 20260904053806 | 54 | 115 | 0.0 | 0.0 | 0.00 | 0.01 | 0.01 | 84 | 1008.3 |
| 20260904052758 | 54 | 115 | 0.0 | 2.0 | 0.00 | 0.01 | 0.01 | 85 | 1008.2 |
| 20260904051754 | 53 | 159 | 0.0 | 2.0 | 0.00 | 0.01 | 0.01 | 85 | 1008.2 |
| 20260904050815 | 55 | 47 | 0.0 | 0.0 | 0.00 | 0.01 | 0.01 | 83 | 1008.1 |
| 20260904044606 | 54 | 47 | 0.0 | 0.0 | 0.00 | 0.01 | 0.01 | 86 | 1008.0 |
| 20260904043613 | 54 | 47 | 0.0 | 0.0 | 0.00 | 0.01 | 0.01 | 84 | 1007.9 |
| 20260904042606 | 56 | 47 | 0.0 | 0.0 | 0.00 | 0.01 | 0.01 | 82 | 1008.0 |
| 20260904041612 | 56 | 47 | 0.0 | 0.0 | 0.00 | 0.01 | 0.01 | 82 | 1008.1 |
| 20260904040551 | 56 | 47 | 0.0 | 0.0 | 0.00 | 0.01 | 0.01 | 83 | 1008.1 |
| 20260904034437 | 57 | 47 | 0.0 | 0.0 | 0.00 | 0.01 | 0.01 | 79 | 1008.1 |
| 20260904033459 | 57 | 47 | 0.0 | 0.0 | 0.00 | 0.01 | 0.01 | 80 | 1008.0 |
| 20260904031342 | 59 | 47 | 0.0 | 0.0 | 0.00 | 0.01 | 0.01 | 75 | 1007.8 |
| 20260904030337 | 60 | 28 | 0.0 | 0.0 | 0.00 | 0.01 | 0.01 | 75 | 1007.7 |
| 20260904023038 | 62 | 280 | 0.0 | 3.0 | 0.00 | 0.01 | 0.01 | 70 | 1007.5 |
| 20260904022035 | 62 | 279 | 1.0 | 3.0 | 0.00 | 0.01 | 0.01 | 69 | 1007.6 |
| 20260904014730 | 66 | 236 | 1.0 | 3.0 | 0.00 | 0.01 | 0.01 | 62 | 1007.4 |
| 20260904013721 | 65 | 186 | 1.0 | 9.0 | 0.00 | 0.01 | 0.01 | 63 | 1007.3 |
| 20260904012711 | 65 | 188 | 3.0 | 9.0 | 0.00 | 0.01 | 0.01 | 63 | 1007.3 |
| 20260904011712 | 65 | 201 | 3.0 | 10.0 | 0.00 | 0.01 | 0.01 | 63 | 1007.3 |
| 20260904010639 | 65 | 189 | 4.0 | 10.0 | 0.00 | 0.01 | 0.01 | 62 | 1007.2 |
| 20260904005612 | 65 | 198 | 5.0 | 9.0 | 0.00 | 0.01 | 0.01 | 63 | 1007.2 |
| 20260904003426 | 65 | 196 | 4.0 | 10.0 | 0.00 | 0.01 | 0.01 | 63 | 1007.2 |
| 20260904001243 | 65 | 157 | 4.0 | 9.0 | 0.00 | 0.02 | 0.01 | 62 | 1007.2 |
| 20260904000255 | 64 | 200 | 5.0 | 9.0 | 0.00 | 0.04 | 0.01 | 64 | 1007.1 |
| 20260903235246 | 64 | 192 | 5.0 | 9.0 | 0.00 | 0.06 | 0.01 | 63 | 1007.2 |
| 20260903234228 | 66 | 184 | 3.0 | 8.0 | 0.00 | 0.07 | 0.01 | 61 | 1007.2 |
| 20260903233218 | 65 | 108 | 4.0 | 10.0 | 0.00 | 0.08 | 0.01 | 62 | 1007.2 |
| 20260903232230 | 66 | 177 | 5.0 | 10.0 | 0.00 | 0.09 | 0.01 | 61 | 1007.2 |
| 20260903231227 | 66 | 187 | 5.0 | 10.0 | 0.00 | 0.09 | 0.01 | 61 | 1007.2 |
| 20260903230245 | 65 | 175 | 5.0 | 11.0 | 0.00 | 0.09 | 0.01 | 62 | 1007.2 |
| 20260903224209 | 67 | 186 | 4.0 | 10.0 | 0.00 | 0.09 | 0.01 | 59 | 1007.4 |
| 20260903223159 | 67 | 192 | 5.0 | 9.0 | 0.00 | 0.09 | 0.01 | 60 | 1007.5 |
| 20260903222131 | 67 | 150 | 5.0 | 13.0 | 0.00 | 0.09 | 0.01 | 59 | 1007.5 |
| 20260903221137 | 67 | 168 | 6.0 | 16.0 | 0.00 | 0.09 | 0.01 | 61 | 1007.5 |
| 20260903220142 | 67 | 196 | 6.0 | 16.0 | 0.00 | 0.09 | 0.01 | 60 | 1007.5 |
| 20260903215142 | 66 | 269 | 4.0 | 11.0 | 0.00 | 0.09 | 0.01 | 64 | 1007.4 |
| 20260903214205 | 66 | 192 | 2.0 | 10.0 | 0.00 | 0.09 | 0.01 | 64 | 1007.5 |
| 20260903213133 | 64 | 194 | 4.0 | 10.0 | 0.00 | 0.09 | 0.01 | 66 | 1007.5 |
| 20260903212110 | 65 | 196 | 4.0 | 9.0 | 0.00 | 0.09 | 0.01 | 64 | 1007.5 |
| 20260903211058 | 66 | 158 | 4.0 | 14.0 | 0.00 | 0.09 | 0.01 | 64 | 1007.5 |
| 20260903210053 | 64 | 156 | 4.0 | 14.0 | 0.00 | 0.09 | 0.01 | 67 | 1007.4 |
| 20260903205058 | 64 | 171 | 4.0 | 14.0 | 0.00 | 0.09 | 0.01 | 67 | 1007.4 |
| 20260903204028 | 64 | 197 | 4.0 | 12.0 | 0.00 | 0.09 | 0.01 | 67 | 1007.3 |
| 20260903202955 | 64 | 166 | 3.0 | 10.0 | 0.00 | 0.09 | 0.01 | 69 | 1007.3 |
| 20260903200838 | 63 | 165 | 5.0 | 11.0 | 0.00 | 0.09 | 0.01 | 69 | 1007.3 |
| 20260903195833 | 63 | 194 | 4.0 | 11.0 | 0.00 | 0.09 | 0.01 | 69 | 1007.3 |
| 20260903194837 | 64 | 163 | 3.0 | 10.0 | 0.00 | 0.09 | 0.01 | 68 | 1007.2 |
| 20260903193829 | 64 | 165 | 2.0 | 12.0 | 0.00 | 0.09 | 0.01 | 66 | 1007.1 |
| 20260903192854 | 66 | 196 | 4.0 | 12.0 | 0.00 | 0.09 | 0.01 | 65 | 1007.0 |
| 20260903191843 | 65 | 171 | 2.0 | 12.0 | 0.00 | 0.09 | 0.01 | 67 | 1007.1 |
| 20260903185711 | 63 | 194 | 6.0 | 13.0 | 0.00 | 0.09 | 0.01 | 71 | 1007.0 |
| 20260903184700 | 63 | 40 | 7.0 | 14.0 | 0.00 | 0.09 | 0.01 | 70 | 1007.0 |
| 20260903183708 | 62 | 190 | 5.0 | 14.0 | 0.00 | 0.09 | 0.01 | 71 | 1007.0 |
| 20260903182651 | 62 | 144 | 5.0 | 15.0 | 0.00 | 0.09 | 0.01 | 73 | 1006.9 |
| 20260903181630 | 62 | 172 | 5.0 | 15.0 | 0.00 | 0.09 | 0.01 | 73 | 1006.9 |
| 20260903174357 | 62 | 178 | 5.0 | 12.0 | 0.00 | 0.09 | 0.01 | 74 | 1006.5 |
| 20260903172255 | 61 | 208 | 5.0 | 14.0 | 0.00 | 0.09 | 0.01 | 77 | 1006.3 |
| 20260903171312 | 61 | 180 | 3.0 | 13.0 | 0.00 | 0.09 | 0.01 | 78 | 1006.2 |
| 20260903165133 | 59 | 131 | 2.0 | 8.0 | 0.00 | 0.09 | 0.01 | 81 | 1006.1 |
| 20260903164148 | 59 | 173 | 2.0 | 5.0 | 0.00 | 0.09 | 0.01 | 82 | 1006.1 |
| 20260903163211 | 58 | 247 | 1.0 | 9.0 | 0.00 | 0.09 | 0.01 | 83 | 1006.1 |
| 20260903161115 | 58 | 203 | 3.0 | 12.0 | 0.00 | 0.09 | 0.01 | 84 | 1006.0 |
| 20260903160041 | 58 | 194 | 4.0 | 10.0 | 0.00 | 0.09 | 0.01 | 85 | 1005.9 |
| 20260903155029 | 58 | 146 | 3.0 | 10.0 | 0.00 | 0.09 | 0.01 | 84 | 1005.9 |
| 20260903153957 | 58 | 197 | 2.0 | 10.0 | 0.00 | 0.09 | 0.01 | 84 | 1006.0 |
| 20260903151819 | 57 | 183 | 2.0 | 11.0 | 0.00 | 0.09 | 0.01 | 85 | 1005.8 |
| 20260903150801 | 57 | 170 | 3.0 | 9.0 | 0.00 | 0.09 | 0.01 | 86 | 1005.8 |
| 20260903145755 | 57 | 215 | 4.0 | 9.0 | 0.00 | 0.09 | 0.01 | 86 | 1005.7 |
| 20260903144818 | 56 | 209 | 4.0 | 13.0 | 0.00 | 0.09 | 0.01 | 87 | 1005.6 |
| 20260903143841 | 56 | 78 | 4.0 | 13.0 | 0.00 | 0.09 | 0.01 | 87 | 1005.6 |
| 20260903142823 | 56 | 217 | 3.0 | 13.0 | 0.00 | 0.09 | 0.01 | 88 | 1005.5 |
| 20260903141814 | 56 | 204 | 1.0 | 10.0 | 0.00 | 0.09 | 0.01 | 89 | 1005.5 |
| 20260903140811 | 56 | 140 | 3.0 | 10.0 | 0.00 | 0.09 | 0.01 | 89 | 1005.3 |
| 20260903135815 | 56 | 239 | 3.0 | 9.0 | 0.00 | 0.09 | 0.01 | 89 | 1005.3 |
| 20260903134818 | 56 | 144 | 3.0 | 11.0 | 0.00 | 0.09 | 0.01 | 89 | 1005.2 |
| 20260903133809 | 56 | 162 | 4.0 | 11.0 | 0.00 | 0.09 | 0.01 | 90 | 1005.1 |
| 20260903132749 | 55 | 150 | 4.0 | 14.0 | 0.00 | 0.09 | 0.01 | 90 | 1005.0 |
| 20260903131752 | 55 | 187 | 4.0 | 14.0 | 0.00 | 0.09 | 0.01 | 90 | 1004.9 |
| 20260903130807 | 55 | 199 | 3.0 | 10.0 | 0.00 | 0.09 | 0.01 | 90 | 1004.7 |
| 20260903125745 | 55 | 219 | 3.0 | 12.0 | 0.00 | 0.09 | 0.01 | 89 | 1004.7 |
| 20260903124747 | 56 | 195 | 5.0 | 17.0 | 0.00 | 0.09 | 0.01 | 87 | 1004.6 |
| 20260903122658 | 57 | 175 | 5.0 | 16.0 | 0.00 | 0.08 | 0.00 | 83 | 1004.5 |
| 20260903121645 | 57 | 200 | 4.0 | 16.0 | 0.00 | 0.08 | 0.00 | 83 | 1004.5 |
| 20260903120710 | 57 | 103 | 5.0 | 16.0 | 0.00 | 0.08 | 0.00 | 82 | 1004.3 |
| 20260903115733 | 57 | 206 | 5.0 | 14.0 | 0.00 | 0.08 | 0.00 | 82 | 1004.2 |
| 20260903113555 | 58 | 192 | 5.0 | 16.0 | 0.00 | 0.08 | 0.00 | 82 | 1004.1 |